Weather History for Karlovy Vary, Czech Republic

Change the Weather History Date:

Tuesday, March 5, 2013

  Actual Average (EDQM) Record (EDQM)
Temperature  
Mean Temperature 31 °F -  
Max Temperature 39 °F 37 °F 50 °F (2002)
Min Temperature 23 °F 27 °F 14 °F (2004)
Degree Days  
Heating Degree Days 34    
Moisture  
Dew Point 24 °F    
Average Humidity 75    
Maximum Humidity 93    
Minimum Humidity 61    
Precipitation  
Precipitation 0.00 in - - ()
Sea Level Pressure  
Sea Level Pressure 29.94 in    
Wind  
Wind Speed 6 mph ()    
Max Wind Speed 13 mph    
Max Gust Speed -    
Averages and records for this station are not official NWS values.
T = Trace of Precipitation, MM = Missing Value Source: Averaged Metar Reports

Daily Weather History Graph

Daily Weather History Graph

Search for Another Location

Airport:

Trip Planner

Search our weather history database for the weather conditions in past years. The results will help you decide how hot, cold, wet, or windy it might be!

Date:

Astronomy

Mar. 05, 2013 Rise Set
Actual Time 6:43 AM CET 5:57 PM CET
Civil Twilight 6:11 AM CET 6:29 PM CET
Nautical Twilight 5:33 AM CET 7:07 PM CET
Astronomical Twilight 4:55 AM CET 7:45 PM CET
Moon 2:05 AM CET (3/5) 10:51 AM CET (3/5)
Length of Visible Light 12h 18m
Length of Day
11h 13m
Last Quarter, 44% of the Moon is Illuminated
Mar 5
Last Quarter
Mar 11
New
Mar 19
First Quarter
Mar 27
Full
Apr 3
Last Quarter

Hourly Weather History & Observations

Time (CET) Temp. Windchill Dew Point Humidity Pressure Visibility Wind Dir Wind Speed Gust Speed Precip Events Conditions
12:00 AM 28.4 °F 21.2 °F 21.2 °F 74% 30.09 in - NE 6.9 mph - N/A   Clear
1:00 AM 28.4 °F 21.2 °F 23.0 °F 80% 30.06 in - NE 6.9 mph - N/A   Clear
2:00 AM 26.6 °F - 23.0 °F 86% 30.06 in - Variable 2.3 mph - N/A   Clear
3:00 AM 24.8 °F - 21.2 °F 86% 30.04 in - Calm Calm - N/A   Clear
4:00 AM 23.0 °F 17.0 °F 19.4 °F 86% 30.01 in - East 4.6 mph - N/A   Clear
5:00 AM 24.8 °F 20.5 °F 21.2 °F 86% 30.01 in - NE 3.5 mph - N/A   Clear
6:00 AM 24.8 °F - 19.4 °F 80% 30.01 in - Variable 2.3 mph - N/A   Clear
6:30 AM 23.0 °F - 19.4 °F 86% 30.01 in - Variable 1.2 mph - N/A   Clear
7:00 AM 23.0 °F 18.4 °F 19.4 °F 86% 30.01 in - ENE 3.5 mph - N/A   Clear
7:30 AM 23.0 °F 15.8 °F 19.4 °F 86% 30.01 in - NE 5.8 mph - N/A   Clear
8:00 AM 26.6 °F 20.0 °F 21.2 °F 80% 29.98 in - NE 5.8 mph - N/A   Clear
8:30 AM 26.6 °F 18.2 °F 21.2 °F 80% 29.98 in - NE 8.1 mph - N/A   Clear
9:00 AM 30.2 °F 25.4 °F 23.0 °F 75% 29.98 in - ENE 4.6 mph - N/A   Clear
9:30 AM 32.0 °F 24.8 °F 23.0 °F 69% 29.98 in - East 8.1 mph - N/A   Clear
10:00 AM 33.8 °F 24.8 °F 24.8 °F 70% 29.98 in - East 12.7 mph - N/A   Clear
10:30 AM 33.8 °F 24.8 °F 24.8 °F 70% 29.98 in - East 12.7 mph - N/A   Clear
11:00 AM 33.8 °F 25.3 °F 24.8 °F 70% 29.98 in - East 11.5 mph - N/A   Clear
11:30 AM 33.8 °F 25.8 °F 24.8 °F 70% 29.95 in - East 10.4 mph - N/A   Clear
12:00 PM 35.6 °F 29.2 °F 24.8 °F 65% 29.95 in - ESE 8.1 mph - N/A   Clear
12:30 PM 35.6 °F 27.5 °F 24.8 °F 65% 29.95 in - East 11.5 mph - N/A   Clear
1:00 PM 35.6 °F 27.5 °F 24.8 °F 65% 29.95 in - East 11.5 mph - N/A   Clear
1:30 PM 37.4 °F 29.3 °F 26.6 °F 65% 29.92 in - East 12.7 mph - N/A   Clear
2:00 PM 37.4 °F 29.8 °F 26.6 °F 65% 29.92 in - East 11.5 mph - N/A   Clear
2:30 PM 37.4 °F 29.3 °F 26.6 °F 65% 29.92 in - East 12.7 mph - N/A   Clear
3:00 PM 37.4 °F 30.3 °F 26.6 °F 65% 29.89 in - East 10.4 mph - N/A   Clear
3:30 PM 39.2 °F 32.0 °F 26.6 °F 61% 29.89 in - East 11.5 mph - N/A   Clear
4:00 PM 39.2 °F 32.5 °F 26.6 °F 61% 29.89 in - East 10.4 mph - N/A   Clear
4:30 PM 39.2 °F 32.5 °F 28.4 °F 65% 29.89 in - East 10.4 mph - N/A   Clear
5:00 PM 37.4 °F 30.8 °F 28.4 °F 70% 29.89 in - East 9.2 mph - N/A   Clear
5:30 PM 37.4 °F 32.8 °F 26.6 °F 65% 29.86 in - East 5.8 mph - N/A   Clear
6:00 PM 37.4 °F - 26.6 °F 65% 29.86 in - Variable 2.3 mph - N/A   Clear
6:30 PM 35.6 °F - 26.6 °F 70% 29.86 in - Variable 1.2 mph - N/A   Clear
7:00 PM 32.0 °F - 26.6 °F 80% 29.86 in - Variable 2.3 mph - N/A   Clear
7:30 PM 30.2 °F - 26.6 °F 86% 29.86 in - Variable 1.2 mph - N/A   Clear
8:00 PM 30.2 °F 26.7 °F 26.6 °F 86% 29.86 in - East 3.5 mph - N/A   Clear
9:00 PM 30.2 °F - 26.6 °F 86% 29.83 in - East 2.3 mph - N/A   Clear
10:00 PM 30.2 °F 26.7 °F 26.6 °F 86% 29.83 in - ENE 3.5 mph - N/A   Clear
11:00 PM 26.6 °F 22.6 °F 24.8 °F 93% 29.83 in - ESE 3.5 mph - N/A   Clear